This is the latest recevied weather packets stored in our database for station/object DG1ABU-11. If no packets are shown the sender has not sent any weather packets the latest 1 day(s).
| Time | Temp. | Humidity | Pressure | Rain* | Wind** | Luminosity | Snow |
|---|---|---|---|---|---|---|---|
| 1778087864 | 13.89° C | 62% | 1007.9 hPa | - | - | - | - |
| 1778086064 | 13.89° C | 61% | 1007.8 hPa | - | - | - | - |
| 1778084264 | 14.44° C | 61% | 1007.6 hPa | - | - | - | - |
| 1778083364 | 14.44° C | 61% | 1007.6 hPa | - | - | - | - |
| 1778082464 | 14.44° C | 61% | 1007.6 hPa | - | - | - | - |
| 1778081564 | 14.44° C | 61% | 1007.8 hPa | - | - | - | - |
| 1778080664 | 14.44° C | 61% | 1007.8 hPa | - | - | - | - |
| 1778069863 | 15° C | 59% | 1007.7 hPa | - | - | - | - |
| 1778068963 | 15° C | 60% | 1007.6 hPa | - | - | - | - |
| 1778068063 | 15° C | 60% | 1007.6 hPa | - | - | - | - |
| 1778067163 | 15° C | 60% | 1007.6 hPa | - | - | - | - |
| 1778066263 | 14.44° C | 59% | 1007.6 hPa | - | - | - | - |
| 1778065363 | 14.44° C | 60% | 1007.7 hPa | - | - | - | - |
| 1778060862 | 13.89° C | 60% | 1007.6 hPa | - | - | - | - |
| 1778059962 | 13.89° C | 60% | 1007.5 hPa | - | - | - | - |
| 1778058162 | 13.89° C | 60% | 1007.1 hPa | - | - | - | - |
| 1778057262 | 13.89° C | 60% | 1007.1 hPa | - | - | - | - |
| 1778056362 | 13.89° C | 60% | 1007.1 hPa | - | - | - | - |
| 1778055462 | 13.89° C | 61% | 1007 hPa | - | - | - | - |
| 1778054562 | 13.33° C | 61% | 1006.9 hPa | - | - | - | - |
| 1778053662 | 13.33° C | 61% | 1006.8 hPa | - | - | - | - |
| 1778052762 | 13.33° C | 61% | 1006.9 hPa | - | - | - | - |
| 1778051862 | 13.33° C | 61% | 1006.8 hPa | - | - | - | - |
| 1778050962 | 12.78° C | 61% | 1006.8 hPa | - | - | - | - |
| 1778050062 | 12.78° C | 61% | 1006.7 hPa | - | - | - | - |
* Rain since midnight (hover to see other rain measurements)
** Current wind speed in m/s (hover to see current wind gust speed)